GFSFLT1_sfc_rhum_252.txt.gz
RH
76 83 86 87 85 82 80 79 78 80 77 72 74 76 71 75 81 87 81 82 77 71 70 70 74 67 68 68 68 66 64 64 60
81 86 88 87 83 77 74 74 74 74 74 71 72 75 74 84 91 88 82 75 70 67 69 75 70 67 67 70 72 70 66 62 60
84 85 87 85 79 74 72 72 71 74 73 71 75 76 80 83 95 95 94 75 67 67 73 73 71 67 69 68 68 64 58 63 61
85 84 83 82 81 78 77 72 74 78 72 75 83 84 85 93 91 87 96 79 66 66 72 73 70 67 65 66 66 63 60 62 68
86 86 84 83 84 81 80 78 80 82 80 84 83 85 84 81 83 95 95 79 65 65 73 73 71 71 68 68 65 63 64 68 72
89 86 87 85 85 83 85 85 85 86 86 81 84 83 76 79 91 97 85 78 70 73 78 77 77 73 70 67 67 70 72 73 78
85 89 91 89 89 87 87 87 85 85 79 78 82 77 73 76 88 96 84 83 78 80 80 80 79 78 73 70 69 73 74 80 77
93 96 90 93 92 93 94 94 96 90 79 67 60 75 73 76 79 86 85 82 81 80 76 74 73 73 72 71 71 73 76 78 77
94 91 97 96 95 96 98 99 96 90 72 59 72 64 71 72 74 82 84 79 74 75 74 70 70 70 70 70 70 73 74 73 73
92 90 88 87 93 97 98 98 93 89 69 61 70 58 65 71 75 79 84 80 78 76 72 70 67 65 63 67 71 73 72 69 71
90 88 84 84 82 93 97 97 93 88 77 76 69 69 74 81 77 79 80 84 81 75 67 54 54 63 63 62 75 73 69 68 68
90 87 83 78 78 85 94 97 94 86 74 75 71 64 72 77 77 78 89 85 81 70 60 57 57 67 58 69 74 71 69 68 67
89 86 79 75 75 78 84 92 89 84 75 65 74 64 70 72 77 79 86 77 71 80 74 72 68 62 63 69 74 71 69 67 64
89 89 88 80 71 72 81 87 82 81 72 65 76 71 76 75 75 80 80 87 88 90 84 80 77 74 70 77 72 69 66 64 65
90 88 91 86 84 79 78 82 78 73 69 66 83 90 84 87 86 82 86 88 91 91 87 93 84 83 78 72 68 67 66 64 64
90 92 88 88 86 80 79 79 78 81 75 83 86 88 87 94 93 89 91 92 94 93 95 93 91 89 80 84 70 69 66 65 62
91 91 90 86 90 93 84 81 81 88 72 81 97 98 89 87 90 89 86 93 95 94 92 93 92 95 94 85 78 70 65 64 63
91 92 91 89 87 91 89 85 78 85 77 69 85 99 97 97 96 95 90 89 95 97 96 93 88 86 84 81 80 79 72 64 64
95 92 92 93 90 92 90 88 85 90 85 79 76 80 90 95 99 93 97 95 94 97 97 94 83 79 80 82 84 82 80 65 64
94 95 94 95 92 92 90 94 91 90 89 81 91 87 87 82 90 99 98 98 96 95 88 87 80 75 77 83 81 83 78 65 63

GFSFLT1_sfc_rhum_255.txt.gz
RH
76 83 86 85 83 82 81 80 78 79 80 79 76 74 73 82 89 94 84 90 78 71 71 74 69 68 68 68 63 59 56 60 62
81 86 87 87 85 82 78 80 79 78 75 76 77 69 82 90 92 88 79 91 70 69 76 71 67 68 69 76 69 63 60 60 64
83 86 85 82 79 77 76 75 75 72 72 71 76 78 84 85 92 91 84 79 72 70 75 70 67 68 68 72 68 61 56 62 60
84 87 85 79 77 77 76 73 71 76 74 75 79 86 88 95 97 91 94 79 66 72 75 71 69 68 69 66 62 60 57 65 66
88 90 89 85 83 82 81 77 79 79 77 84 87 87 90 95 95 96 96 78 65 71 73 70 66 67 64 66 63 65 68 73 68
93 89 90 90 86 84 83 80 83 85 89 87 86 86 85 90 93 97 86 78 66 70 74 73 72 69 68 64 63 66 68 76 71
89 91 91 90 90 87 86 87 87 89 90 84 84 79 78 85 96 94 84 78 68 73 77 78 72 70 67 68 73 71 72 78 75
98 98 91 97 96 98 95 96 96 93 90 82 82 78 81 83 96 89 86 83 75 78 80 80 76 72 70 70 73 75 81 77 76
98 95 99 98 99 98 99 99 95 92 85 70 71 74 75 76 91 93 88 87 80 78 77 77 75 75 75 73 73 75 74 78 74
98 88 95 96 98 98 99 98 97 94 84 70 70 79 73 72 81 96 88 85 85 78 74 73 71 70 66 68 74 74 73 73 73
96 88 95 98 92 98 98 98 98 95 79 74 71 66 71 74 79 82 91 85 85 81 75 72 66 64 61 62 74 76 73 71 70
96 95 96 94 92 96 98 98 97 96 72 68 76 81 76 79 80 79 83 90 87 83 73 61 57 56 64 61 73 74 70 70 68
97 96 94 92 91 90 97 97 97 94 77 73 82 83 85 81 77 79 81 88 80 76 70 70 63 67 63 63 77 71 72 71 64
96 95 94 92 92 91 93 97 91 92 80 70 84 75 79 79 77 81 80 83 77 80 83 82 80 75 66 69 75 71 69 67 65
95 95 95 92 91 91 84 89 91 86 82 68 82 81 84 85 83 80 80 82 86 91 86 90 84 83 76 82 73 68 67 66 64
94 95 94 92 91 88 84 86 88 85 84 90 90 91 96 91 90 90 86 88 89 91 94 94 88 85 85 83 77 68 68 66 65
94 93 94 91 91 88 87 86 87 85 75 75 92 99 97 94 92 93 92 93 94 94 94 95 91 88 92 92 86 73 69 66 65
93 93 91 91 89 90 89 90 87 87 80 71 79 99 97 98 96 96 94 93 96 94 93 93 94 92 94 90 88 84 76 66 65
93 92 91 91 89 89 89 87 89 85 86 84 74 76 92 98 99 97 97 96 95 96 98 94 92 92 92 90 86 84 82 67 65
93 92 92 91 89 88 88 88 89 95 91 82 89 88 86 92 97 98 99 99 97 97 98 97 97 91 86 89 86 85 81 68 65

GFSFLT1_sfc_rhum_258.txt.gz
RH
75 80 83 82 82 81 80 78 80 82 81 78 76 76 83 88 94 95 90 92 75 74 74 70 68 69 67 63 58 66 63 61 59
80 84 86 83 82 83 80 76 76 80 81 78 75 74 86 93 95 89 93 88 76 71 71 69 68 69 67 66 64 62 59 56 64
82 84 85 85 82 82 78 79 77 75 78 79 73 82 86 86 92 84 96 89 70 76 70 68 68 72 75 68 62 58 69 65 66
84 86 84 82 81 82 81 78 75 72 74 79 79 87 88 93 95 86 84 82 73 76 70 68 66 70 70 64 61 57 66 61 65
89 91 86 82 82 82 81 76 74 78 80 83 86 90 91 95 95 96 89 78 69 75 71 70 69 69 63 63 61 57 63 65 68
95 96 92 88 86 84 82 79 83 83 87 89 89 91 97 97 97 98 87 76 63 74 72 69 68 68 69 65 61 73 75 69 69
93 95 95 92 90 88 84 83 88 91 97 97 89 96 95 92 96 97 86 78 66 73 74 75 71 67 65 64 65 68 71 72 74
99 98 96 98 95 98 95 96 98 96 97 95 94 85 84 86 98 92 85 80 70 75 79 74 70 68 70 73 70 72 81 80 76
99 98 98 98 98 98 99 99 97 95 93 91 91 78 86 93 97 91 93 86 78 77 76 75 71 71 71 71 73 80 83 79 75
98 98 97 98 98 98 99 98 97 95 88 78 86 74 76 85 98 90 91 95 86 79 78 79 75 72 72 72 73 73 74 76 73
95 96 94 98 98 98 98 98 97 96 88 77 81 76 74 76 94 95 89 89 90 82 76 74 72 68 66 66 72 76 73 74 71
96 96 96 97 98 98 98 98 98 97 84 81 79 77 88 82 85 92 94 88 88 86 81 76 68 64 61 61 62 78 75 75 71
92 95 97 97 97 98 98 98 99 97 89 82 81 86 89 90 91 88 92 94 84 84 81 77 65 60 59 64 60 76 72 72 67
93 94 96 97 95 95 97 98 96 98 93 74 79 91 95 92 79 79 79 81 87 86 79 78 78 77 70 62 66 73 73 74 64
95 95 95 97 96 95 96 96 97 95 89 68 79 89 87 89 84 80 79 78 80 86 81 90 91 83 77 69 79 73 70 68 67
94 94 96 96 95 93 93 96 93 90 77 88 89 93 93 90 90 86 82 79 82 85 93 96 91 81 82 80 80 71 68 68 66
92 93 95 95 94 93 92 90 92 88 77 82 88 99 95 92 92 93 90 89 90 88 91 94 91 85 91 91 85 78 68 68 67
95 94 92 93 92 93 91 90 89 91 84 74 84 99 97 99 97 96 94 93 96 95 91 95 94 90 90 90 90 83 78 69 67
97 95 94 93 92 92 91 89 87 86 90 86 73 82 86 96 99 98 97 97 98 97 96 96 96 95 95 94 93 90 88 73 68
94 93 96 95 92 91 91 91 88 86 87 86 92 88 88 92 94 95 98 99 98 97 97 96 97 94 96 96 92 90 84 71 69

GFSFLT1_sfc_rhum_261.txt.gz
RH
73 77 79 80 80 78 80 81 83 85 83 79 78 78 84 87 65 65 71 67 72 74 73 68 68 67 64 63 60 59 56 60 66
79 83 84 83 82 81 81 79 80 84 83 78 78 84 88 67 66 66 66 69 77 72 69 69 66 64 61 59 59 64 55 64 65
84 85 86 84 81 79 79 78 80 80 82 77 76 86 86 70 69 69 72 79 76 71 68 67 70 68 64 62 60 59 60 64 61
86 86 86 84 82 81 82 80 78 81 82 80 80 88 86 61 65 71 87 90 75 71 69 70 73 72 67 59 64 64 60 66 65
90 91 88 87 86 85 85 83 78 78 82 86 84 89 87 59 63 66 77 83 77 72 70 69 71 69 65 61 60 68 69 67 67
80 83 90 88 87 85 84 81 81 85 88 86 90 89 59 61 60 59 81 77 75 73 71 70 69 63 64 62 65 67 66 67 80
77 84 93 90 89 88 84 82 88 83 62 62 87 62 62 60 63 63 85 77 69 74 70 70 69 70 66 63 70 75 72 74 86
82 78 86 82 86 68 72 78 69 63 62 66 62 62 67 60 59 68 86 80 67 74 75 72 67 66 65 64 69 72 74 78 76
91 83 82 80 74 72 74 74 73 68 68 64 61 62 75 66 65 72 95 87 77 76 76 72 68 71 72 72 77 83 82 76 74
94 92 83 81 81 77 79 76 72 68 68 66 63 72 72 62 68 60 91 93 84 79 76 71 69 71 71 73 73 77 83 76 72
94 95 93 92 90 85 86 76 72 67 66 64 64 67 70 60 66 65 78 95 91 83 77 72 72 70 70 70 74 74 75 76 74
96 97 97 95 94 88 86 78 74 69 64 62 62 62 62 64 64 72 87 84 94 90 82 81 79 72 66 68 70 75 74 74 74
90 93 90 94 96 94 92 85 77 72 67 60 58 57 57 60 63 66 75 83 84 87 87 83 72 66 60 60 61 76 76 73 72
89 92 90 89 94 94 92 92 80 77 72 63 57 59 57 57 61 66 68 70 78 77 82 83 79 74 69 62 60 74 74 73 68
89 91 91 96 96 95 93 92 86 78 72 63 60 66 64 64 64 60 64 65 69 66 65 68 68 83 79 70 62 74 72 72 67
85 90 90 94 95 92 90 91 92 90 77 77 76 76 82 71 70 67 74 74 68 63 64 73 66 63 81 78 77 77 72 69 68
90 84 89 93 96 93 93 90 93 90 78 78 77 82 79 81 76 71 75 73 75 66 63 65 70 66 64 71 84 85 71 68 67
86 84 84 90 91 92 93 91 89 92 83 71 69 82 76 78 81 78 72 72 72 75 66 67 72 76 85 78 90 91 83 70 68
82 88 86 85 87 89 91 88 89 87 88 81 65 66 68 73 87 82 82 76 78 82 83 70 71 74 87 90 88 90 85 77 70
78 82 86 87 86 84 84 88 89 86 84 85 80 75 77 72 76 82 83 88 80 75 73 71 66 71 79 85 90 91 86 76 74